Aérodrome :
LOGIN :

S'inscrire | Disclaimer

   EN    FR    IT 

 










Légende :    VFR   VFR Marginal   IFR   IFR Intensif   IFR Très Intensif
Visi : 
Plafond : 
>= 8 km
>= 3000ft
5 à 8 km
1000 à 3000 ft
1500m à 5 km
500 à 1000 ft
800 à 1500m
200 à 500 ft
< 800m
< 200 ft
Symboles :   Orages  Brouillard  Fortes neiges  Fortes précipitations  Vent > 20 kt
SIGMETs :   Divers  Orages  Givrage  Turbulence  Onde Orograph.  Cendres Volcan.






- Altitude de l'aérodrome : 0 ft


ENOA - Oseberg A Platform

DERNIER METAR :
  • 302150Z 35037KT 9999 BKN020 07/04 Q1014 W///S5

METARs EXPIRÉS :
  • 302120Z 35038KT 9999 BKN020 07/04 Q1014 W///S5
  • 302020Z 36036KT 9999 FEW025 SCT050 08/03 Q1012 W///S5
  • 301950Z 36032KT 9999 SCT020 BKN065 07/03 Q1012 RESHRA W///S5
  • 301920Z 36032KT 9999 SCT020 07/04 Q1012 W///S5

TAF ENOA
Valide du 30 à 21h jusqu'au 01 à 21h UTC


3021/0121 35035KT 9999 SCT020 BKN040
PROB30
TEMPO 3021/0103 SHRA BKN018CB
BECMG 0104/0106 36025KT
BECMG 0108/0110 01015KT
TEMPO 0111/0115 VRB08KT
BECMG 0116/0119 20025KT



MET'MAP, la Météo Aéronautique d'un coup d'oeil ! - Copyright ORBIFLY Décembre 2007 - Disclaimer

ORBIFLY MET'MAP TEAM :

Programmation & Développement : Alexandra Zaïnal
Sur une idée originale de : Baudouin d'Aumeries
Assistance à la programmation : Marc-Olivier Méhu
Soutien technique & logistique : Manuel Goepfert

Contact : metmap@orbifly.com




SOURCES & CREDITS :

   NOAA